Location: ?????????
(55.6553°N, 38.9075°E)
Time: 03:37:56
(UTC+00:00)

USA 229 - Pass Details

Date: 18 October 2019
Orbit: 996 x 1216 km, 63.4° (Epoch: 11 November)

Event Time Altitude Azimuth Distance (km) Brightness Sun altitude
Exits shadow 02:54:29 - 298° (WNW) 3,044 5.5 -10.0°
Reaches altitude 10° 02:54:50 10° 299° (WNW) 2,922 5.4 -9.9°
Maximum altitude 03:01:35 50° 14° (NNE) 1,405 4.4 -9.0°
Drops below altitude 10° 03:08:42 10° 89° (E) 3,074 7.8 -8.0°
Sets 03:11:36 0° 95° (E) 4,063 9.4 -7.5°
